Regional Weather Roundup
Issued by NWS Bismarck, ND

Home | Current Version | Previous Version | Text Only | Print | Product List | Glossary On
Versions: 1 2 3 4 5 6 7 8 9 10 11 12 13 14 15 16 17 18 19 20 21 22 23 24 25 26 27 28 29 30 31 32 33 34 35 36 37 38 39 40 41 42 43 44 45 46 47 48 49 50
000
ASUS43 KBIS 301959
RWRBIS

NWR BROADCAST TEXT
NATIONAL WEATHER SERVICE BISMARCK ND
300 PM CDT WED JUL 30 2014

NOTE: "FAIR" INDICATES FEW OR NO CLOUDS BELOW 12,000 FEET WITH NO
SIGNIFICANT WEATHER AND/OR OBSTRUCTIONS TO VISIBILITY.


CITY           SKY/WX    TMP DP  RH WIND       PRES   REMARKS
WILLISTON      SUNNY     83  48  29 NE13      30.17S
MINOT          PTSUNNY   79  54  41 NW8       30.14S
MINOT AFB      NOT AVBL
BISMARCK       PTSUNNY   82  56  40 VRB7      30.13F
DICKINSON      NOT AVBL
GARRISON         N/A     78  60  53 SE3       30.15S
HETTINGER ARPT MOSUNNY   81  51  35 VRB3      30.18S
JAMESTOWN      NOT AVBL
CARRINGTON     FAIR      75  54  46 N7        30.15S
CROSBY         FAIR      75  52  43 E5        30.18F
HARVEY         FAIR      75  59  57 NE5       30.14S
HAZEN          FAIR      79  55  44 NW8       30.15S
LINTON         FAIR      79  57  47 NE3       30.13S
MANDAN         FAIR      77  55  47 CALM      30.15F
RUGBY          FAIR      77  59  53 W5        30.13S
TIOGA          FAIR      75  54  46 N6        30.21S
WATFORD CITY   FAIR      81  50  34 N9        30.15S
$$

CITY           SKY/WX    TMP DP  RH WIND       PRES   REMARKS
GRAND FORKS    MOSUNNY   80  56  43 NW5       30.07F
GRAND FORKS AF NOT AVBL
DEVILS LAKE    MOSUNNY   77  55  47 N10       30.11S
FARGO          MOSUNNY   80  52  37 N8        30.08F
CAVALIER       FAIR      81  50  34 NW6       30.08S
GRAFTON        FAIR      81  54  39 N9        30.07S
GWINNER        PTCLDY    79  54  41 CALM      30.13S
LANGDON        FAIR      81  52  36 NW9       30.12S
$$

CITY           SKY/WX    TMP DP  RH WIND       PRES   REMARKS
ABERDEEN       MOSUNNY   80  55  42 NE6       30.11F
MOBRIDGE       MOSUNNY   83  57  41 VRB3      30.10S
RAPID CITY     MOSUNNY   83  46  27 N9        30.18S
GLASGOW        SUNNY     89  45  21 S9        30.12F
SIDNEY         SUNNY     82  55  39 SE5       30.17F
WOLF POINT     SUNNY     88  49  25 SE5       30.14F
GLENDIVE       SUNNY     84  52  32 SE5       30.17F
MILES CITY     SUNNY     87  40  19 E9        30.17F
BAKER          SUNNY     85  49  28 NE9       30.19F
$$

CITY           SKY/WX    TMP DP  RH WIND       PRES   REMARKS
BILLINGS       MOSUNNY   87  41  19 S10       30.20F
GREAT FALLS    MOSUNNY   91  37  15 VRB6      30.12F
$$




USA.gov is the U.S. government's official web portal to all federal, state and local government web resources and services.